Hourly Data Report for November 12, 2004

SHERBROOKE A
QUEBEC

45°26'00.000" N
71°41'00.000" W
241.40 m
7028124
71610
YSC

Download Data

Hourly Data (November 2004)
Hourly Data Report for November 12, 2004
TIME
LST
Temp Definition
°C
Dew Point Definition
°C
Rel Hum Definition
%
Precip. Amount Definition
mm

Wind Dir Definition
10's deg

Wind Spd Definition
km/h
Visibility Definition
km
Stn Press Definition
kPa
Hmdx Definition


Wind Chill Definition


Weather Definition


00:00 -6.6 -9.4 80   30 6 15.0 100.04   -10  
01:00 -6.2 -9.8 76   32 7 15.0 100.08   -10  
02:00 -7.1 -10.3 78   31 4 15.0 100.19   -9  
03:00 -8.1 -10.3 84     0 15.0 100.11      
04:00 -8.3 -10.0 88     0 15.0 100.09      
05:00 -8.5 -10.3 87     0 15.0 100.09      
06:00 -8.8 -10.6 87     0 15.0 100.14      
07:00 -9.3 -10.9 88     0 15.0 100.17      
08:00 -7.4 -9.2 87   9 4 24.1 100.19   -9 Mostly Cloudy
09:00 -5.8 -8.5 81     0 24.1 100.22     Mostly Cloudy
10:00 -4.4 -8.1 75     0 24.1 100.20     Mostly Cloudy
11:00 -3.4 -6.8 77   29 4 24.1 100.17   -5 Mostly Cloudy
12:00 -2.0 -9.3 57   7 4 24.1 100.11   -3 Mostly Cloudy
13:00 -1.4 -10.2 51   36 4 24.1 100.09   -3 Mostly Cloudy
14:00 -0.4 -11.6 42   7 4 24.1 100.04   -2 Mostly Cloudy
15:00 -0.8 -12.4 41   6 4 24.1 100.02   -2 Mostly Cloudy
16:00 -1.1 -12.4 42   4 4 24.1 100.06   -2 Mainly Clear
17:00 -4.8 -10.7 63     0 24.1 100.10     Mainly Clear
18:00 -6.0 -11.2 67   2 4 15.0 100.19   -8  
19:00 -7.3 -11.0 75     0 15.0 100.20      
20:00 -8.9 -11.6 81     0 15.0 100.22      
21:00 -9.3 -11.2 86   8 6 15.0 100.24   -13  
22:00 -9.8 -11.8 85   5 4 15.0 100.24   -12  
23:00 -10.0 -11.8 87   12 6 15.0 100.24   -14  

Notes on Data Quality.

Legend

  • E = Estimated
  • M = Missing
  • NA = Not Available*
  • [empty] = Indicates an unobserved value
Date modified: